Regional Weather Roundup
Issued by NWS Little Rock, AR

Home | Current Version | Previous Version | Text Only | Print | Product List | Glossary On
Versions: 1 2 3 4 5 6 7 8 9 10 11 12 13 14 15 16 17 18 19 20 21 22 23 24 25 26 27 28 29 30 31 32 33 34 35 36 37 38 39 40 41 42 43 44 45 46 47 48 49 50
000
ASUS44 KLZK 281105
RWRLZK

WEATHER ROUNDUP FOR ARKANSAS
NATIONAL WEATHER SERVICE LITTLE ROCK AR
500 AM CST SUN DEC 28 2014

NOTE: "FAIR" INDICATES FEW OR NO CLOUDS BELOW 12,000 FEET WITH NO
SIGNIFICANT WEATHER AND/OR OBSTRUCTIONS TO VISIBILITY.

ARZ001-003-010-029-281200-
NORTHWEST ARKANSAS

CITY           SKY/WX    TMP DP  RH WIND       PRES   REMARKS
FAYETTEVILLE   CLOUDY    28  25  88 CALM      30.19F
FORT SMITH     CLOUDY    32  26  78 W7        30.23F WCI  26
HARRISON       CLOUDY    28  25  88 NW6       30.18F WCI  22
BENTONVILLE    CLOUDY    27  21  80 NE5       30.20F WCI  21
ROGERS         CLOUDY    25  24  96 CALM      30.20F
SILOAM SPGS    CLOUDY    27  19  74 CALM      30.21F
HIGHFILL       CLOUDY    27  23  85 N6        30.19F WCI  20
$$

ARZ004-005-016-281200-
NORTH CENTRAL ARKANSAS

CITY           SKY/WX    TMP DP  RH WIND       PRES   REMARKS
BATESVILLE     CLOUDY    34  28  80 N6        30.20R WCI  29
FLIPPIN        CLOUDY    30  23  74 NW7       30.20F WCI  23
MTN HOME       CLOUDY    30  26  85 NW5       30.19F WCI  25
$$

ARZ040-041-281200-
WEST CENTRAL ARKANSAS

CITY           SKY/WX    TMP DP  RH WIND       PRES   REMARKS
MENA           CLOUDY    34  30  86 N3        30.20R
MOUNT IDA      CLOUDY    34  29  82 CALM      30.17R
$$

ARZ009-017-025-026-028-281200-
NORTHEAST ARKANSAS

CITY           SKY/WX    TMP DP  RH WIND       PRES   REMARKS
CORNING        CLOUDY    36  32  87 N14       30.20S
JONESBORO      CLOUDY    38  34  85 N6        30.18S
NEWPORT        CLOUDY    38  35  89 NW10      30.21R
WALNUT RIDGE   CLOUDY    37  30  75 N12       30.19S
BLYTHEVILLE    CLOUDY    38  37  97 N16       30.18S
$$

ARZ022-023-033-042-044-281200-
CENTRAL ARKANSAS

CITY           SKY/WX    TMP DP  RH WIND       PRES   REMARKS
LITTLE ROCK    CLOUDY    39  32  76 N9        30.20F
N LITTLE ROCK    N/A     37  35  91 N6        30.20F
JACKSONVILLE   CLOUDY    38  33  82 VRB6      30.19S
SEARCY         CLOUDY    38  33  82 NE9       30.21S
HOT SPRINGS    CLOUDY    38  35  89 CALM      30.18R
RUSSELLVILLE   CLOUDY    36  31  82 NW3       30.19S
CLINTON        FAIR      32  27  80 N6        30.22R WCI  26
$$

ARZ036-281200-
EAST ARKANSAS

CITY           SKY/WX    TMP DP  RH WIND       PRES   REMARKS
WEST MEMPHIS   CLOUDY    40  40 100 N12       30.18R FOG
$$

ARZ050-053-066-070-073-281200-
SOUTHWEST ARKANSAS

CITY           SKY/WX    TMP DP  RH WIND       PRES   REMARKS
ARKADELPHIA    CLOUDY    41  41 100 NW5       30.21R
CAMDEN         CLOUDY    41  39  93 MISG      30.20R
TEXARKANA      CLOUDY    39  37  92 W6        30.22R
EL DORADO      LGT RAIN  42  41  96 NW6       30.20R
DE QUEEN       CLOUDY    36  33  89 SW3       30.21R
$$

ARZ056-057-069-281200-
SOUTHEAST ARKANSAS

CITY           SKY/WX    TMP DP  RH WIND       PRES   REMARKS
PINE BLUFF     CLOUDY    39  35  86 N7        30.18F
STUTTGART      CLOUDY    39  34  81 N12       30.17F
MONTICELLO     CLOUDY    42  39  89 VRB5      30.19S

$$





USA.gov is the U.S. government's official web portal to all federal, state and local government web resources and services.